Location: Eastlake (historical)
(39.0077°N, 122.6678°W)
Time: 05:00:49
(UTC+00:00)

TIMED - Pass Details

Date: 25 November 2020
Orbit: 602 x 605 km, 74.1° (Epoch: 24 January)

Event Time Altitude Azimuth Distance (km) Brightness Sun altitude
Exits shadow 13:21:50 46° 308° (NW) 819 4.7 -19.8°
Maximum altitude 13:22:51 60° 255° (WSW) 693 4.5 -19.6°
Drops below altitude 10° 13:27:08 10° 175° (S) 1,942 7.3 -18.8°
Sets 13:29:22 0° 172° (S) 2,842 8.2 -18.3°
